Location: Nelson
(38.9945°N, 93.0321°W)
Time: 14:42:07
(UTC+00:00)

ACS3 Solar Sail - Pass Details

Date: 02 July 2024
Orbit: 993 x 1023 km, 97.4° (Epoch: 18 July)

Event Time Altitude Azimuth Distance (km) Brightness Sun altitude
Exits shadow 04:14:11 23° 202° (SSW) 1,977 6.1 -21.7°
Maximum altitude 04:17:46 46° 263° (W) 1,315 5.6 -22.1°
Drops below altitude 10° 04:23:43 10° 336° (NNW) 2,763 8.3 -22.6°
Sets 04:26:20 0° 342° (NNW) 3,717 9.3 -22.9°
